SWA007 KDAL-KDCA

Flight info

Callsign SWA007
Flight time 2h 5m
Altitude 33000
Route LNDRE5 LOOSE Q34 SITTR TRUPS5
Aircraft B38M/M-SDE1FGHILORVWXY/HB1

Departure

Time 2026-05-06 23:05
Airport Dallas Love Field (KDAL)

Arrival

Time 2026-05-07 01:10
Airport Ronald Reagan Washington National Airport (KDCA)
Time Latitude Longitude Altitude Speed Heading
2026-05-06 22:52 32.84648 -96.85184 486 ft 0 kts 180°
2026-05-06 22:56 32.84656 -96.85184 478 ft 4 kts 180°
2026-05-06 22:57 32.84683 -96.85183 476 ft 4 kts 185°
2026-05-06 22:57 32.84709 -96.85178 480 ft 4 kts 195°
2026-05-06 22:57 32.84734 -96.85166 476 ft 4 kts 217°
2026-05-06 22:57 32.84746 -96.85145 478 ft 2 kts 269°
2026-05-06 22:58 32.84746 -96.85138 478 ft 0 kts 270°
2026-05-06 23:00 32.84746 -96.85143 486 ft 3 kts 269°
2026-05-06 23:00 32.84745 -96.85203 486 ft 10 kts 268°
2026-05-06 23:00 32.84735 -96.85301 485 ft 13 kts 220°
2026-05-06 23:01 32.84636 -96.85326 481 ft 17 kts 183°
2026-05-06 23:01 32.84503 -96.85343 481 ft 21 kts 186°
2026-05-06 23:01 32.84366 -96.85269 485 ft 25 kts 134°
2026-05-06 23:01 32.84244 -96.85104 480 ft 28 kts 135°
2026-05-06 23:02 32.84090 -96.84949 483 ft 31 kts 139°
2026-05-06 23:02 32.83918 -96.84778 482 ft 33 kts 139°
2026-05-06 23:02 32.83756 -96.84568 485 ft 36 kts 134°
2026-05-06 23:02 32.83565 -96.84345 485 ft 37 kts 135°
2026-05-06 23:03 32.83451 -96.84305 483 ft 0 kts 225°
2026-05-06 23:04 32.83432 -96.84352 485 ft 25 kts 263°
2026-05-06 23:04 32.83683 -96.84667 481 ft 89 kts 316°
2026-05-06 23:04 32.84285 -96.85368 485 ft 151 kts 316°
2026-05-06 23:05 32.85132 -96.86363 728 ft 184 kts 316°
2026-05-06 23:05 32.86118 -96.87549 1176 ft 219 kts 317°
2026-05-06 23:05 32.87346 -96.88675 2226 ft 207 kts 328°
2026-05-06 23:05 32.88455 -96.89602 3688 ft 192 kts 330°
2026-05-06 23:06 32.89804 -96.90068 3946 ft 220 kts
2026-05-06 23:06 32.91147 -96.89442 4490 ft 229 kts 39°
2026-05-06 23:06 32.91992 -96.87966 5109 ft 244 kts 73°
2026-05-06 23:06 32.92003 -96.85917 5648 ft 259 kts 111°
2026-05-06 23:07 32.90939 -96.84173 6157 ft 269 kts 150°
2026-05-06 23:07 32.89180 -96.83513 6696 ft 270 kts 185°
2026-05-06 23:07 32.87259 -96.83674 7201 ft 286 kts 187°
2026-05-06 23:07 32.85205 -96.83605 7591 ft 311 kts 171°
2026-05-06 23:08 32.83120 -96.82616 7982 ft 336 kts 151°
2026-05-06 23:08 32.81271 -96.80748 8273 ft 360 kts 139°
2026-05-06 23:08 32.79424 -96.78658 8696 ft 373 kts 140°
2026-05-06 23:08 32.77516 -96.76512 9281 ft 380 kts 140°
2026-05-06 23:09 32.75595 -96.74349 10039 ft 382 kts 141°
2026-05-06 23:09 32.73652 -96.72162 10606 ft 388 kts 141°
2026-05-06 23:09 32.71702 -96.69972 11205 ft 391 kts 141°
2026-05-06 23:09 32.69790 -96.67637 11733 ft 402 kts 131°
2026-05-06 23:10 32.68499 -96.64695 12335 ft 414 kts 111°
2026-05-06 23:10 32.68082 -96.61254 12779 ft 428 kts 91°
2026-05-06 23:10 32.68158 -96.57707 13302 ft 434 kts 87°
2026-05-06 23:10 32.68889 -96.54216 13821 ft 440 kts 64°
2026-05-06 23:11 32.70605 -96.51219 14238 ft 442 kts 42°
2026-05-06 23:11 32.73010 -96.48950 14629 ft 443 kts 32°
2026-05-06 23:11 32.75440 -96.46753 15120 ft 447 kts 34°
2026-05-06 23:11 32.77912 -96.44464 15437 ft 455 kts 34°
2026-05-06 23:12 32.80411 -96.42125 15825 ft 459 kts 34°
2026-05-06 23:12 32.82895 -96.39787 16264 ft 463 kts 34°
2026-05-06 23:12 32.85449 -96.37379 16392 ft 470 kts 34°
2026-05-06 23:12 32.87947 -96.34920 16376 ft 469 kts 42°
2026-05-06 23:13 32.89968 -96.31845 16443 ft 474 kts 59°
2026-05-06 23:13 32.91321 -96.28268 16444 ft 475 kts 69°
2026-05-06 23:13 32.92540 -96.24613 16427 ft 476 kts 69°
2026-05-06 23:13 32.93742 -96.20947 16411 ft 475 kts 69°
2026-05-06 23:14 32.94931 -96.17286 16416 ft 476 kts 69°
2026-05-06 23:14 32.96125 -96.13601 16570 ft 478 kts 69°
2026-05-06 23:14 32.97317 -96.09916 17087 ft 480 kts 70°
2026-05-06 23:14 32.98525 -96.06173 17343 ft 488 kts 70°
2026-05-06 23:15 32.99745 -96.02393 17786 ft 490 kts 70°
2026-05-06 23:15 33.00970 -95.98586 18136 ft 496 kts 70°
2026-05-06 23:15 33.02215 -95.94725 18480 ft 500 kts 70°
2026-05-06 23:15 33.03473 -95.90845 18832 ft 503 kts 68°
2026-05-06 23:16 33.04731 -95.86945 19177 ft 506 kts 68°
2026-05-06 23:16 33.05989 -95.83020 19546 ft 508 kts 69°
2026-05-06 23:16 33.07225 -95.79173 19894 ft 511 kts 69°
2026-05-06 23:16 33.08485 -95.75220 20249 ft 513 kts 69°
2026-05-06 23:17 33.09343 -95.72532 20470 ft 515 kts 69°
2026-05-06 23:17 33.10621 -95.68538 20817 ft 518 kts 69°
2026-05-06 23:17 33.11895 -95.64559 21156 ft 520 kts 69°
2026-05-06 23:17 33.13186 -95.60517 21533 ft 523 kts 69°
2026-05-06 23:18 33.14480 -95.56465 21875 ft 525 kts 69°
2026-05-06 23:18 33.15784 -95.52370 22212 ft 528 kts 68°
2026-05-06 23:18 33.17092 -95.48262 22546 ft 530 kts 68°
2026-05-06 23:18 33.18410 -95.44114 22873 ft 533 kts 69°
2026-05-06 23:19 33.19719 -95.39989 23197 ft 535 kts 69°
2026-05-06 23:19 33.21046 -95.35798 23520 ft 538 kts 68°
2026-05-06 23:19 33.22363 -95.31636 23775 ft 540 kts 69°
2026-05-06 23:19 33.23695 -95.27420 24054 ft 542 kts 69°
2026-05-06 23:20 33.24998 -95.23292 24304 ft 544 kts 69°
2026-05-06 23:20 33.26287 -95.19207 24543 ft 546 kts 69°
2026-05-06 23:20 33.27626 -95.14952 24796 ft 548 kts 69°
2026-05-06 23:20 33.28970 -95.10675 25034 ft 551 kts 69°
2026-05-06 23:21 33.30309 -95.06410 25285 ft 553 kts 69°
2026-05-06 23:21 33.31669 -95.02072 25536 ft 555 kts 69°
2026-05-06 23:21 33.33024 -94.97741 25779 ft 557 kts 69°
2026-05-06 23:21 33.34384 -94.93391 26027 ft 559 kts 70°
2026-05-06 23:22 33.35739 -94.89052 26282 ft 561 kts 70°
2026-05-06 23:22 33.37095 -94.84700 26561 ft 562 kts 70°
2026-05-06 23:22 33.38472 -94.80277 26897 ft 561 kts 70°
2026-05-06 23:22 33.39814 -94.75960 27232 ft 561 kts 70°
2026-05-06 23:23 33.41175 -94.71572 27545 ft 561 kts 70°
2026-05-06 23:23 33.42524 -94.67221 27868 ft 561 kts 70°
2026-05-06 23:23 33.43877 -94.62848 28191 ft 561 kts 70°
2026-05-06 23:23 33.45233 -94.58461 28516 ft 561 kts 70°
2026-05-06 23:24 33.46575 -94.54114 28854 ft 560 kts 70°
2026-05-06 23:24 33.47927 -94.49725 29269 ft 558 kts 70°
2026-05-06 23:24 33.49270 -94.45360 29580 ft 558 kts 70°
2026-05-06 23:24 33.50609 -94.41000 29901 ft 558 kts 70°
2026-05-06 23:25 33.51939 -94.36669 30192 ft 558 kts 70°
2026-05-06 23:25 33.53288 -94.32269 30434 ft 558 kts 70°
2026-05-06 23:25 33.54621 -94.27912 30664 ft 559 kts 70°
2026-05-06 23:25 33.55929 -94.23532 30899 ft 559 kts 71°
2026-05-06 23:26 33.57237 -94.19142 31135 ft 560 kts 71°
2026-05-06 23:26 33.58553 -94.14731 31379 ft 560 kts 71°
2026-05-06 23:26 33.59862 -94.10337 31631 ft 560 kts 71°
2026-05-06 23:26 33.61159 -94.05972 31859 ft 561 kts 71°
2026-05-06 23:27 33.62463 -94.01581 32062 ft 562 kts 71°
2026-05-06 23:27 33.65106 -93.92665 31984 ft 565 kts 71°
2026-05-06 23:28 33.67721 -93.83815 32011 ft 566 kts 71°
2026-05-06 23:28 33.70329 -93.74964 32009 ft 563 kts 71°
2026-05-06 23:29 33.72936 -93.66086 32008 ft 563 kts 71°
2026-05-06 23:29 33.75530 -93.57226 32009 ft 564 kts 71°
2026-05-06 23:30 33.78114 -93.48373 32009 ft 563 kts 71°
2026-05-06 23:30 33.80677 -93.39567 32016 ft 564 kts 71°
2026-05-06 23:31 33.83276 -93.30608 32027 ft 564 kts 71°
2026-05-06 23:31 33.85837 -93.21750 32040 ft 564 kts 71°
2026-05-06 23:32 33.88411 -93.12832 32051 ft 564 kts 72°
2026-05-06 23:32 33.91326 -93.04080 32051 ft 563 kts 66°
2026-05-06 23:33 33.94521 -92.95453 32042 ft 567 kts 66°
2026-05-06 23:33 33.97664 -92.86984 32054 ft 568 kts 66°
2026-05-06 23:34 34.00793 -92.78534 32015 ft 574 kts 66°
2026-05-06 23:34 34.04041 -92.69740 32028 ft 574 kts 66°
2026-05-06 23:35 34.07286 -92.61000 32021 ft 570 kts 65°
2026-05-06 23:35 34.10522 -92.52318 32021 ft 569 kts 65°
2026-05-06 23:36 34.13689 -92.43809 32009 ft 569 kts 65°
2026-05-06 23:36 34.16925 -92.35089 32018 ft 569 kts 65°
2026-05-06 23:37 34.20115 -92.26472 32055 ft 569 kts 66°
2026-05-06 23:37 34.23363 -92.17672 32054 ft 572 kts 66°
2026-05-06 23:38 34.26570 -92.08962 32042 ft 571 kts 66°
2026-05-06 23:38 34.29795 -92.00178 32047 ft 572 kts 66°
2026-05-06 23:39 34.33006 -91.91406 32044 ft 572 kts 66°
2026-05-06 23:39 34.36201 -91.82659 32010 ft 569 kts 66°
2026-05-06 23:40 34.39380 -91.73926 32024 ft 569 kts 66°
2026-05-06 23:40 34.42566 -91.65156 32029 ft 569 kts 66°
2026-05-06 23:41 34.45604 -91.56766 32060 ft 569 kts 66°
2026-05-06 23:41 34.48787 -91.47954 32050 ft 574 kts 66°
2026-05-06 23:42 34.51987 -91.39072 32051 ft 575 kts 66°
2026-05-06 23:42 34.55187 -91.30166 32036 ft 575 kts 66°
2026-05-06 23:43 34.58294 -91.21489 32021 ft 575 kts 66°
2026-05-06 23:43 34.61333 -91.12985 31995 ft 574 kts 66°
2026-05-06 23:44 34.64111 -91.05188 31997 ft 571 kts 66°
2026-05-06 23:44 34.67258 -90.96335 32005 ft 571 kts 66°
2026-05-06 23:45 34.70380 -90.87528 32002 ft 571 kts 66°
2026-05-06 23:45 34.73538 -90.78593 32050 ft 571 kts 66°
2026-05-06 23:46 34.76686 -90.69658 32016 ft 577 kts 66°
2026-05-06 23:46 34.79815 -90.60758 32012 ft 576 kts 66°
2026-05-06 23:47 34.82949 -90.51816 32023 ft 576 kts 66°
2026-05-06 23:47 34.86006 -90.43068 32023 ft 576 kts 66°
2026-05-06 23:48 34.89071 -90.34274 32017 ft 575 kts 66°
2026-05-06 23:48 34.91619 -90.26945 32021 ft 573 kts 66°
2026-05-06 23:49 34.94698 -90.18064 32031 ft 573 kts 66°
2026-05-06 23:49 34.97326 -90.10471 32030 ft 573 kts 66°
2026-05-06 23:50 35.00272 -90.01937 32045 ft 575 kts 66°
2026-05-06 23:50 35.04552 -89.89960 32028 ft 580 kts 65°
2026-05-06 23:51 35.07371 -89.82088 32024 ft 579 kts 65°
2026-05-06 23:51 35.10555 -89.73172 32008 ft 579 kts 65°
2026-05-06 23:52 35.13705 -89.64324 32008 ft 579 kts 65°
2026-05-06 23:52 35.16453 -89.56587 32030 ft 579 kts 65°
2026-05-06 23:53 35.19585 -89.47741 32037 ft 579 kts 65°
2026-05-06 23:53 35.22767 -89.38731 32032 ft 579 kts 65°
2026-05-06 23:54 35.25929 -89.29753 32051 ft 582 kts 65°
2026-05-06 23:54 35.29151 -89.20579 32019 ft 589 kts 65°
2026-05-06 23:55 35.32356 -89.11426 32005 ft 586 kts 65°
2026-05-06 23:55 35.35572 -89.02224 32021 ft 587 kts 65°
2026-05-06 23:56 35.38773 -88.93043 32030 ft 587 kts 65°
2026-05-06 23:56 35.41969 -88.83850 32030 ft 586 kts 65°
2026-05-06 23:57 35.45156 -88.74657 32034 ft 585 kts 65°
2026-05-06 23:57 35.48329 -88.65477 32030 ft 585 kts 66°
2026-05-06 23:58 35.51486 -88.56315 32017 ft 591 kts 66°
2026-05-06 23:58 35.54611 -88.47221 32005 ft 593 kts 66°
2026-05-06 23:59 35.57798 -88.37906 32015 ft 589 kts 66°
2026-05-06 23:59 35.60951 -88.28663 32016 ft 588 kts 66°
2026-05-07 00:00 35.64103 -88.19396 32018 ft 589 kts 66°
2026-05-07 00:00 35.66725 -88.11667 32028 ft 589 kts 66°
2026-05-07 00:01 35.70400 -88.00797 32027 ft 587 kts 66°
2026-05-07 00:01 35.73512 -87.91564 32030 ft 588 kts 66°
2026-05-07 00:02 35.76648 -87.82233 32029 ft 592 kts 66°
2026-05-07 00:02 35.79766 -87.72846 32026 ft 592 kts 66°
2026-05-07 00:03 35.82841 -87.63531 32035 ft 591 kts 66°
2026-05-07 00:03 35.85931 -87.54145 32037 ft 591 kts 66°
2026-05-07 00:04 35.89016 -87.44740 32055 ft 591 kts 66°
2026-05-07 00:04 35.92091 -87.35339 32044 ft 591 kts 66°
2026-05-07 00:05 35.95159 -87.25930 32045 ft 590 kts 66°
2026-05-07 00:05 35.98215 -87.16525 32040 ft 590 kts 67°
2026-05-07 00:06 36.01247 -87.07169 32028 ft 590 kts 67°
2026-05-07 00:06 36.03867 -86.99061 32031 ft 591 kts 67°
2026-05-07 00:07 36.06585 -86.90620 32011 ft 590 kts 67°
2026-05-07 00:07 36.09532 -86.81443 32016 ft 589 kts 67°
2026-05-07 00:08 36.11801 -86.74363 32009 ft 589 kts 67°
2026-05-07 00:08 36.15252 -86.63702 32010 ft 589 kts 66°
2026-05-07 00:09 36.18193 -86.54639 31992 ft 589 kts 66°
2026-05-07 00:09 36.20729 -86.46806 32263 ft 589 kts 66°
2026-05-07 00:10 36.22252 -86.42091 32456 ft 592 kts 66°
2026-05-07 00:10 36.23627 -86.37824 32660 ft 592 kts 66°
2026-05-07 00:10 36.25152 -86.33086 32915 ft 592 kts 66°
2026-05-07 00:10 36.26568 -86.28683 33051 ft 594 kts 66°
2026-05-07 00:11 36.29557 -86.19358 32998 ft 592 kts 67°
2026-05-07 00:11 36.32570 -86.09935 33016 ft 591 kts 67°
2026-05-07 00:12 36.35593 -86.00450 33007 ft 591 kts 67°
2026-05-07 00:12 36.38345 -85.91803 33018 ft 590 kts 66°
2026-05-07 00:13 36.41118 -85.83029 33010 ft 590 kts 67°
2026-05-07 00:13 36.44059 -85.73719 33014 ft 594 kts 66°
2026-05-07 00:14 36.47056 -85.64190 33027 ft 596 kts 66°
2026-05-07 00:14 36.50067 -85.54592 33007 ft 596 kts 67°
2026-05-07 00:15 36.53004 -85.45196 33012 ft 596 kts 66°
2026-05-07 00:15 36.55372 -85.37598 33004 ft 594 kts 66°
2026-05-07 00:16 36.58151 -85.28662 32994 ft 592 kts 66°
2026-05-07 00:16 36.61106 -85.19124 32993 ft 593 kts 67°
2026-05-07 00:17 36.64055 -85.09568 33027 ft 593 kts 67°
2026-05-07 00:17 36.66943 -85.00189 33042 ft 594 kts 67°
2026-05-07 00:18 36.69660 -84.91322 33040 ft 593 kts 66°
2026-05-07 00:18 36.72286 -84.82733 33026 ft 594 kts 67°
2026-05-07 00:19 36.74929 -84.74065 33039 ft 594 kts 67°
2026-05-07 00:19 36.77822 -84.64544 33015 ft 593 kts 67°
2026-05-07 00:20 36.80364 -84.56151 33016 ft 592 kts 67°
2026-05-07 00:20 36.82998 -84.47423 32990 ft 591 kts 67°
2026-05-07 00:21 36.85763 -84.38239 32995 ft 592 kts 67°
2026-05-07 00:21 36.88541 -84.28979 33043 ft 592 kts 67°
2026-05-07 00:22 36.91158 -84.20228 33040 ft 591 kts 67°
2026-05-07 00:22 36.93552 -84.12198 33035 ft 591 kts 67°
2026-05-07 00:23 36.96155 -84.03439 33022 ft 592 kts 67°
2026-05-07 00:23 36.98797 -83.94522 33013 ft 592 kts 67°
2026-05-07 00:24 37.01436 -83.85585 33023 ft 591 kts 67°
2026-05-07 00:24 37.04063 -83.76657 33015 ft 590 kts 67°
2026-05-07 00:25 37.06898 -83.66997 33034 ft 589 kts 67°
2026-05-07 00:25 37.09640 -83.57631 32984 ft 591 kts 67°
2026-05-07 00:26 37.12444 -83.47994 32986 ft 589 kts 67°
2026-05-07 00:26 37.15223 -83.38416 32975 ft 589 kts 67°
2026-05-07 00:27 37.18026 -83.28721 32980 ft 590 kts 67°
2026-05-07 00:27 37.20810 -83.19065 32974 ft 589 kts 67°
2026-05-07 00:28 37.23240 -83.10610 32974 ft 589 kts 67°
2026-05-07 00:28 37.25027 -83.04373 32981 ft 589 kts 67°
2026-05-07 00:29 37.27790 -82.94694 33016 ft 588 kts 68°
2026-05-07 00:30 37.33238 -82.75518 32984 ft 588 kts 68°
2026-05-07 00:30 37.35894 -82.66119 32997 ft 577 kts 67°
2026-05-07 00:31 37.38419 -82.57155 32974 ft 576 kts 68°
2026-05-07 00:31 37.40870 -82.48425 32964 ft 576 kts 68°
2026-05-07 00:32 37.43468 -82.39130 32982 ft 576 kts 68°
2026-05-07 00:32 37.46111 -82.29654 32953 ft 573 kts 68°
2026-05-07 00:33 37.48728 -82.20233 32979 ft 573 kts 68°
2026-05-07 00:33 37.51351 -82.10750 32981 ft 573 kts 68°
2026-05-07 00:34 37.53917 -82.01447 32967 ft 573 kts 68°
2026-05-07 00:34 37.56517 -81.91977 32936 ft 573 kts 68°
2026-05-07 00:35 37.58970 -81.83033 32941 ft 574 kts 68°
2026-05-07 00:35 37.61542 -81.73599 32980 ft 574 kts 68°
2026-05-07 00:36 37.64093 -81.64218 32936 ft 573 kts 68°
2026-05-07 00:36 37.66663 -81.54727 32970 ft 572 kts 69°
2026-05-07 00:37 37.69227 -81.45225 32975 ft 571 kts 69°
2026-05-07 00:37 37.71635 -81.36270 32962 ft 572 kts 69°
2026-05-07 00:38 37.74082 -81.27210 32957 ft 572 kts 67°
2026-05-07 00:38 37.76531 -81.18048 32963 ft 571 kts 67°
2026-05-07 00:39 37.79322 -81.09326 32970 ft 564 kts 55°
2026-05-07 00:39 37.82834 -81.01033 32953 ft 569 kts 60°
2026-05-07 00:40 37.84208 -80.96371 32964 ft 572 kts 72°
2026-05-07 00:40 37.85298 -80.91599 33080 ft 573 kts 68°
2026-05-07 00:40 37.86569 -80.86889 32923 ft 570 kts 65°
2026-05-07 00:40 37.87946 -80.82241 32963 ft 568 kts 64°
2026-05-07 00:41 37.90678 -80.73441 32925 ft 570 kts 63°
2026-05-07 00:41 37.93252 -80.65321 32946 ft 566 kts 63°
2026-05-07 00:42 37.95893 -80.56996 32965 ft 562 kts 63°
2026-05-07 00:42 37.98557 -80.48563 32947 ft 551 kts 63°
2026-05-07 00:43 38.01089 -80.40529 32923 ft 549 kts 63°
2026-05-07 00:43 38.03658 -80.32344 32926 ft 545 kts 63°
2026-05-07 00:44 38.04936 -80.28253 32928 ft 529 kts 63°
2026-05-07 00:44 38.06139 -80.24408 32920 ft 523 kts 63°
2026-05-07 00:44 38.08809 -80.15879 32894 ft 520 kts 63°
2026-05-07 00:45 38.11454 -80.07378 32932 ft 518 kts 63°
2026-05-07 00:45 38.14074 -79.98938 32781 ft 514 kts 63°
2026-05-07 00:46 38.15377 -79.94725 32529 ft 510 kts 63°
2026-05-07 00:46 38.16671 -79.90543 32235 ft 507 kts 63°
2026-05-07 00:46 38.17955 -79.86392 31912 ft 503 kts 64°
2026-05-07 00:46 38.19228 -79.82255 31644 ft 501 kts 64°
2026-05-07 00:47 38.20491 -79.78146 31363 ft 497 kts 64°
2026-05-07 00:47 38.21746 -79.74067 31138 ft 495 kts 64°
2026-05-07 00:47 38.22865 -79.70425 30880 ft 493 kts 64°
2026-05-07 00:47 38.23976 -79.66801 30674 ft 490 kts 65°
2026-05-07 00:48 38.25212 -79.62771 30417 ft 488 kts 65°
2026-05-07 00:48 38.26439 -79.58758 30152 ft 487 kts 65°
2026-05-07 00:48 38.27662 -79.54744 29884 ft 487 kts 65°
2026-05-07 00:48 38.28885 -79.50725 29634 ft 487 kts 65°
2026-05-07 00:49 38.30109 -79.46710 29341 ft 486 kts 65°
2026-05-07 00:49 38.31334 -79.42684 29046 ft 486 kts 65°
2026-05-07 00:49 38.32549 -79.38677 28738 ft 484 kts 65°
2026-05-07 00:49 38.33755 -79.34695 28466 ft 483 kts 65°
2026-05-07 00:50 38.34963 -79.30703 28201 ft 483 kts 65°
2026-05-07 00:50 38.36168 -79.26710 27902 ft 482 kts 65°
2026-05-07 00:50 38.37367 -79.22740 27638 ft 477 kts 65°
2026-05-07 00:50 38.38542 -79.18835 27373 ft 470 kts 65°
2026-05-07 00:51 38.39710 -79.14956 27157 ft 470 kts 65°
2026-05-07 00:51 38.40885 -79.11050 26891 ft 472 kts 65°
2026-05-07 00:51 38.42058 -79.07139 26630 ft 472 kts 65°
2026-05-07 00:51 38.43227 -79.03234 26368 ft 471 kts 65°
2026-05-07 00:52 38.44395 -78.99332 26111 ft 470 kts 65°
2026-05-07 00:52 38.45558 -78.95440 25854 ft 470 kts 65°
2026-05-07 00:52 38.46720 -78.91544 25598 ft 469 kts 65°
2026-05-07 00:52 38.47875 -78.87662 25347 ft 467 kts 65°
2026-05-07 00:53 38.49027 -78.83789 25094 ft 465 kts 66°
2026-05-07 00:53 38.50168 -78.79936 24853 ft 463 kts 67°
2026-05-07 00:53 38.51294 -78.76092 24605 ft 461 kts 66°
2026-05-07 00:53 38.52418 -78.72279 24330 ft 458 kts 66°
2026-05-07 00:54 38.53538 -78.68489 24053 ft 455 kts 66°
2026-05-07 00:54 38.54648 -78.64728 23767 ft 451 kts 66°
2026-05-07 00:54 38.55744 -78.61013 23494 ft 446 kts 65°
2026-05-07 00:54 38.56837 -78.57303 23201 ft 445 kts 65°
2026-05-07 00:55 38.57919 -78.53620 22866 ft 446 kts 66°
2026-05-07 00:55 38.59003 -78.49930 22548 ft 445 kts 66°
2026-05-07 00:55 38.60086 -78.46237 22229 ft 442 kts 66°
2026-05-07 00:55 38.61158 -78.42578 21911 ft 439 kts 66°
2026-05-07 00:56 38.62222 -78.38941 21600 ft 436 kts 66°
2026-05-07 00:56 38.63276 -78.35331 21288 ft 433 kts 66°
2026-05-07 00:56 38.64327 -78.31730 20983 ft 430 kts 66°
2026-05-07 00:56 38.65369 -78.28152 20595 ft 428 kts 66°
2026-05-07 00:57 38.66405 -78.24595 20339 ft 425 kts 66°
2026-05-07 00:57 38.67430 -78.21067 19998 ft 422 kts 66°
2026-05-07 00:57 38.68445 -78.17566 19721 ft 418 kts 66°
2026-05-07 00:57 38.69454 -78.14083 19428 ft 415 kts 66°
2026-05-07 00:58 38.70116 -78.11795 19248 ft 413 kts 67°
2026-05-07 00:58 38.71112 -78.08352 18936 ft 410 kts 67°
2026-05-07 00:58 38.72415 -78.03837 18511 ft 406 kts 67°
2026-05-07 00:58 38.73077 -78.01546 18292 ft 404 kts 67°
2026-05-07 00:59 38.75004 -77.94861 17738 ft 396 kts 67°
2026-05-07 00:59 38.75954 -77.91558 17301 ft 396 kts 67°
2026-05-07 00:59 38.76907 -77.88237 16775 ft 399 kts 67°
2026-05-07 01:00 38.77874 -77.84869 16190 ft 404 kts 68°
2026-05-07 01:00 38.78848 -77.81472 15626 ft 407 kts 68°
2026-05-07 01:00 38.79826 -77.78053 15090 ft 410 kts 68°
2026-05-07 01:00 38.80808 -77.74618 14566 ft 411 kts 68°
2026-05-07 01:01 38.81806 -77.71176 14068 ft 411 kts 65°
2026-05-07 01:01 38.83287 -77.68114 13503 ft 399 kts 45°
2026-05-07 01:01 38.85106 -77.65491 12954 ft 389 kts 45°
2026-05-07 01:01 38.86850 -77.62902 12451 ft 379 kts 46°
2026-05-07 01:02 38.88549 -77.60360 11948 ft 370 kts 46°
2026-05-07 01:02 38.90205 -77.57869 11455 ft 362 kts 46°
2026-05-07 01:02 38.91823 -77.55430 10991 ft 355 kts 47°
2026-05-07 01:02 38.93411 -77.53034 10514 ft 349 kts 47°
2026-05-07 01:03 38.94748 -77.50480 10021 ft 345 kts 65°
2026-05-07 01:03 38.95667 -77.47659 9524 ft 339 kts 67°
2026-05-07 01:03 38.96582 -77.44890 8964 ft 336 kts 66°
2026-05-07 01:03 38.97462 -77.42243 8393 ft 333 kts 66°
2026-05-07 01:04 38.98406 -77.39408 7709 ft 332 kts 66°
2026-05-07 01:04 38.99281 -77.36784 7076 ft 331 kts 66°
2026-05-07 01:04 39.00174 -77.34102 6432 ft 330 kts 67°
2026-05-07 01:04 39.01044 -77.31510 5785 ft 328 kts 66°
2026-05-07 01:05 39.01945 -77.28823 5118 ft 325 kts 67°
2026-05-07 01:05 39.02725 -77.26127 4467 ft 318 kts 80°
2026-05-07 01:05 39.02571 -77.23397 3806 ft 305 kts 111°
2026-05-07 01:05 39.01431 -77.21250 3196 ft 290 kts 139°
2026-05-07 01:06 39.00149 -77.19774 3055 ft 267 kts 139°
2026-05-07 01:06 38.98852 -77.18229 2992 ft 241 kts 137°
2026-05-07 01:06 38.97827 -77.16661 2936 ft 219 kts 129°
2026-05-07 01:06 38.97021 -77.15305 2797 ft 201 kts 129°
2026-05-07 01:07 38.96067 -77.14076 2549 ft 192 kts 150°
2026-05-07 01:07 38.94992 -77.13269 2412 ft 178 kts 152°
2026-05-07 01:07 38.94079 -77.12593 2215 ft 170 kts 150°
2026-05-07 01:07 38.93217 -77.11938 2053 ft 169 kts 152°
2026-05-07 01:08 38.92316 -77.11302 2037 ft 170 kts 153°
2026-05-07 01:08 38.91428 -77.10553 2100 ft 175 kts 141°
2026-05-07 01:08 38.90621 -77.09384 2038 ft 187 kts 118°
2026-05-07 01:08 38.90126 -77.08108 1799 ft 192 kts 115°
2026-05-07 01:09 38.89607 -77.06801 1424 ft 185 kts 116°
2026-05-07 01:09 38.88956 -77.05589 928 ft 183 kts 131°
2026-05-07 01:09 38.88005 -77.04546 664 ft 168 kts 148°
2026-05-07 01:09 38.86978 -77.03957 321 ft 167 kts 164°
2026-05-07 01:10 38.85934 -77.03849 69 ft 149 kts 171°
2026-05-07 01:10 38.85262 -77.03780 26 ft 78 kts 178°
2026-05-07 01:10 38.84813 -77.03739 26 ft 51 kts 175°
2026-05-07 01:10 38.84519 -77.03709 27 ft 31 kts 176°
2026-05-07 01:11 38.84396 -77.03777 27 ft 12 kts 252°
2026-05-07 01:11 38.84385 -77.03879 27 ft 12 kts 265°
2026-05-07 01:11 38.84381 -77.03981 29 ft 12 kts 267°
2026-05-07 01:11 38.84387 -77.04091 27 ft 13 kts 301°
2026-05-07 01:12 38.84460 -77.04136 27 ft 11 kts 358°
2026-05-07 01:12 38.84535 -77.04143 27 ft 3 kts 350°
2026-05-07 01:12 38.84559 -77.04145 27 ft 2 kts 15°
2026-05-07 01:12 38.84567 -77.04137 27 ft 2 kts 42°
2026-05-07 01:13 38.84629 -77.04043 27 ft 19 kts 40°
2026-05-07 01:13 38.84745 -77.03968 26 ft 17 kts 25°
2026-05-07 01:13 38.84853 -77.03947 26 ft 10 kts 353°
2026-05-07 01:13 38.84926 -77.03957 26 ft 11 kts 357°
2026-05-07 01:14 38.85006 -77.03962 26 ft 13 kts 357°
2026-05-07 01:14 38.85036 -77.03989 26 ft 8 kts 285°
2026-05-07 01:14 38.85034 -77.04049 26 ft 0 kts 266°